EGCK

Details ICAO EGCK
Name Caernarfon
Region United Kingdom
Timezone Europe/London (UTC+0.0)
Plans Departing 86
Arriving 88
Stats Elevation 13 ft / 4 m (AMSL)
Location 53.103100° -4.338720°
Runways 2
Magnetic Variation 1.754° W
Sunrise 2020-10-26 07:05:42 UTC / 2020-10-26 07:05:42 Local
Sunset 2020-10-26 16:59:14 UTC / 2020-10-26 16:59:14 Local
Advertisement - Login to hide

Runways

ID Width Length Bearing (true/mag) Surface Threshold Overrun Markings Lighting
02 75 ft / 23 m 3,500 ft / 1,067 m 13.18° / 14.93° ASPHALT 253 ft / 77 m 0 ft / 0 m VISUAL CENTERLINE EDGE THRESHOLD
07 75 ft / 23 m 2,995 ft / 913 m 70.77° / 72.53° ASPHALT 151 ft / 46 m 0 ft / 0 m VISUAL CENTERLINE EDGE THRESHOLD
20 75 ft / 23 m 3,500 ft / 1,067 m 193.18° / 194.94° ASPHALT 0 ft / 0 m 0 ft / 0 m VISUAL CENTERLINE EDGE THRESHOLD
25 75 ft / 23 m 2,995 ft / 913 m 250.78° / 252.54° ASPHALT 266 ft / 81 m 0 ft / 0 m VISUAL CENTERLINE EDGE THRESHOLD

Map

Weather


0- 5 10 15 20 25 30 35+ Temperature / °C

Clouds and Precipitation
Forecast for 2020-10-26 18:00 UTC. Updated 4 hours ago

Ground ~20,000 ft ~40,000 ft Winds

METAR

EGCK 261920Z AUTO 28021KT 9999 SCT026/// BKN041/// 12/07 Q0998

TAF

Not found

Frequencies

Tower 122.25 MHz Caernarfon Radio
Warning: Do not use this data for real-world aviation or navigation. No guarantee of current accuracy is given.